TimeMDT,TemperatureF,Dew PointF,Humidity,Sea Level PressureIn,VisibilityMPH,Wind Direction,Wind SpeedMPH,Gust SpeedMPH,PrecipitationIn,Events,Conditions,WindDirDegrees,DateUTC
12:53 AM,46.9,27.0,46,30.04,10.0,NE,4.6,-,N/A,,Clear,50,2013-10-23 06:53:00
1:53 AM,46.0,27.0,47,30.04,10.0,Calm,Calm,-,N/A,,Clear,0,2013-10-23 07:53:00
2:53 AM,46.9,27.0,46,30.03,10.0,NE,9.2,-,N/A,,Clear,40,2013-10-23 08:53:00
3:53 AM,46.9,27.0,46,30.01,10.0,NE,8.1,-,N/A,,Clear,40,2013-10-23 09:53:00
4:53 AM,44.1,26.1,49,30.02,10.0,ENE,10.4,-,N/A,,Clear,60,2013-10-23 10:53:00
5:53 AM,41.0,26.1,55,30.05,10.0,ENE,8.1,-,N/A,,Clear,60,2013-10-23 11:53:00
6:53 AM,44.1,27.0,51,30.07,10.0,NE,10.4,-,N/A,,Clear,50,2013-10-23 12:53:00
7:53 AM,43.0,27.0,53,30.09,10.0,East,5.8,-,N/A,,Clear,80,2013-10-23 13:53:00
8:53 AM,55.0,30.0,38,30.09,-9999.0,East,3.5,-,N/A,,Clear,90,2013-10-23 14:53:00
9:53 AM,63.0,30.0,29,30.07,10.0,ENE,12.7,-,N/A,,Clear,70,2013-10-23 15:53:00
10:53 AM,66.9,30.0,25,30.06,10.0,ENE,11.5,-,N/A,,Clear,70,2013-10-23 16:53:00
11:53 AM,70.0,30.9,24,30.04,10.0,East,13.8,18.4,0.01,,Clear,90,2013-10-23 17:53:00
12:53 PM,73.0,30.9,21,30.01,10.0,East,10.4,-,N/A,,Clear,100,2013-10-23 18:53:00
1:53 PM,75.0,30.9,20,29.97,10.0,ESE,9.2,-,N/A,,Clear,110,2013-10-23 19:53:00
2:53 PM,75.9,32.0,20,29.94,10.0,Variable,5.8,16.1,N/A,,Clear,0,2013-10-23 20:53:00
3:53 PM,77.0,30.9,19,29.93,10.0,ENE,5.8,-,N/A,,Clear,70,2013-10-23 21:53:00
4:53 PM,77.0,33.1,20,29.93,10.0,Variable,6.9,-,N/A,,Clear,0,2013-10-23 22:53:00
5:53 PM,73.0,30.9,21,29.95,10.0,SE,5.8,-,N/A,,Clear,130,2013-10-23 23:53:00
6:53 PM,66.0,30.0,26,29.97,10.0,East,5.8,-,N/A,,Clear,100,2013-10-24 00:53:00
7:53 PM,62.1,30.9,31,29.99,10.0,ENE,5.8,-,N/A,,Clear,70,2013-10-24 01:53:00
8:53 PM,60.1,30.9,33,29.97,10.0,ENE,5.8,-,N/A,,Clear,60,2013-10-24 02:53:00
9:53 PM,55.9,30.9,39,29.97,10.0,ENE,6.9,-,N/A,,Clear,60,2013-10-24 03:53:00
10:53 PM,54.0,30.0,40,29.98,10.0,ENE,8.1,-,N/A,,Clear,60,2013-10-24 04:53:00
11:53 PM,55.0,30.9,40,29.96,10.0,NE,9.2,-,N/A,,Clear,50,2013-10-24 05:53:00